Location: Unspecified
(0.0000°N, 0.0000°E)
Time: 17:07:11
(UTC+02:00)

Ariane H10 - Visible Passes

Search period start: 28 August 2014 00:00
Search period end: 07 September 2014 00:00
Orbit: 282 x 24671 km, 3.9° (Epoch: 27 August)

Date Brightness Start Highest point End Pass type
(mag) Time Alt. Az. Time Alt. Az. Time Alt. Az.
28 Aug 7.5 00:00:00 66° W 01:29:38 78° W 01:29:38 78° W visible
28 Aug 8.4 17:15:34 10° W 17:45:14 84° N 22:57:52 49° E visible
29 Aug 3.7 06:57:48 18° W 07:07:28 63° S 07:10:57 10° ESE visible
29 Aug 6.5 14:35:33 10° W 14:43:43 83° N 20:13:03 10° E visible
29 Aug 5.8 22:40:56 10° W 04:26:04 66° ESE 04:32:49 10° E visible
30 Aug 7.7 19:33:19 10° W 01:03:43 85° WSW 01:03:43 85° WSW visible
31 Aug 8.1 16:48:10 10° W 17:11:49 83° N 22:32:02 41° E visible
01 Sep 4.0 06:32:24 28° W 06:40:00 67° S 06:44:03 10° ESE visible
01 Sep 6.1 22:05:49 10° W 04:00:33 47° ESE 04:05:37 10° E visible
02 Sep 8.7 19:04:30 10° W 00:28:05 89° S 00:37:45 86° ESE visible
03 Sep 7.8 16:20:31 10° W 16:39:42 83° N 22:06:02 34° E visible
04 Sep 4.4 06:06:32 40° WSW 06:12:06 70° S 06:16:49 10° ESE visible
04 Sep 6.5 21:32:20 10° W 03:34:41 31° E 03:38:01 10° E visible
05 Sep 8.7 18:35:38 10° W 23:25:27 90° NNE 00:11:37 77° E visible
06 Sep 7.6 15:52:38 10° W 16:08:22 82° N 21:39:51 27° E visible
